DW9433 Weather Reports


Display with metric or nautical units.
time (UTC)temp
F
wind
direction
speed
MPH
gust
MPH
rain 1hr
in
rain 24hr
in
rain mn
in
humidity
%
barometer
mb
20260902030031 81 224 0.0 0.0 0.00 0.00 0.00 79 1015.3
20260902024530 81 224 0.0 0.0 0.00 0.00 0.00 79 1015.3
20260902023030 82 224 0.0 0.0 0.00 0.00 0.00 77 1015.1
20260902021535 82 224 0.0 0.0 0.00 0.00 0.00 76 1014.9
20260902020029 83 224 0.0 0.0 0.00 0.00 0.00 74 1014.9
20260902014536 84 224 0.0 0.0 0.00 0.00 0.00 73 1014.8
20260902013030 85 224 0.0 0.0 0.00 0.00 0.00 71 1014.7
20260902011536 86 224 0.0 0.0 0.00 0.00 0.00 69 1014.7
20260902010042 88 224 0.0 0.0 0.00 0.00 0.00 66 1014.6
20260902004533 90 224 0.0 0.0 0.00 0.00 0.00 62 1014.5
20260902003026 91 224 0.0 0.0 0.00 0.00 0.00 60 1014.4
20260902001526 92 224 0.0 0.0 0.00 0.00 0.00 56 1014.3
20260902000042 93 224 0.0 0.0 0.00 0.00 0.00 55 1014.4
20260901234549 94 167 0.0 0.0 0.00 0.00 0.00 52 1014.5
20260901233023 95 167 0.0 0.0 0.00 0.00 0.00 50 1014.6
20260901231538 96 173 0.0 2.0 0.00 0.00 0.00 49 1014.6
20260901230022 96 164 0.0 1.0 0.00 0.00 0.00 48 1014.6
20260901224529 96 147 0.0 3.0 0.00 0.00 0.00 48 1014.7
20260901223033 96 160 0.0 2.0 0.00 0.00 0.00 49 1014.6
20260901221527 97 148 0.0 1.0 0.00 0.00 0.00 48 1014.6
20260901220020 98 182 0.0 4.0 0.00 0.00 0.00 46 1014.6
20260901214518 98 85 0.0 0.0 0.00 0.00 0.00 44 1014.5
20260901213017 98 142 0.0 2.0 0.00 0.00 0.00 45 1014.6
20260901211516 99 174 0.0 0.0 0.00 0.00 0.00 45 1014.7
20260901210014 98 173 0.0 0.0 0.00 0.00 0.00 46 1014.9
20260901204515 98 24 0.0 0.0 0.00 0.00 0.00 48 1015.0
20260901203020 97 24 0.0 1.0 0.00 0.00 0.00 51 1015.2
20260901201510 98 18 0.0 1.0 0.00 0.00 0.00 49 1015.3
20260901200022 98 34 0.0 0.0 0.00 0.00 0.00 48 1015.4
20260901194506 97 24 0.0 0.0 0.00 0.00 0.00 48 1015.6
20260901193005 97 153 0.0 0.0 0.00 0.00 0.00 50 1015.7
20260901191502 96 177 0.0 0.0 0.00 0.00 0.00 54 1015.9
20260901190001 97 177 0.0 0.0 0.00 0.00 0.00 50 1016.1
20260901184600 97 34 0.0 0.0 0.00 0.00 0.00 50 1016.3
20260901183102 96 80 0.0 0.0 0.00 0.00 0.00 51 1016.5
20260901181601 97 38 0.0 3.0 0.00 0.00 0.00 50 1016.6
20260901180058 98 12 0.0 1.0 0.00 0.00 0.00 50 1016.7
20260901174559 97 10 0.0 6.0 0.00 0.00 0.00 51 1017.0
20260901173108 98 350 0.0 1.0 0.00 0.00 0.00 54 1017.1
20260901171605 98 344 0.0 1.0 0.00 0.00 0.00 49 1017.4
20260901170101 98 148 0.0 2.0 0.00 0.00 0.00 50 1017.6
20260901164611 97 193 0.0 1.0 0.00 0.00 0.00 52 1017.8
20260901163051 97 187 0.0 1.0 0.00 0.00 0.00 52 1017.9
20260901161548 96 22 0.0 0.0 0.00 0.00 0.00 56 1017.9
20260901160049 95 28 0.0 0.0 0.00 0.00 0.00 59 1018.0
20260901154546 95 273 0.0 0.0 0.00 0.00 0.00 60 1018.3
20260901153043 94 61 0.0 0.0 0.00 0.00 0.00 61 1018.3
20260901151539 93 276 0.0 0.0 0.00 0.00 0.00 64 1018.2
20260901150036 92 262 0.0 0.0 0.00 0.00 0.00 65 1018.3
20260901144538 91 264 0.0 0.0 0.00 0.00 0.00 68 1018.3
20260901143030 90 199 0.0 0.0 0.00 0.00 0.00 68 1018.3
20260901141526 88 248 0.0 0.0 0.00 0.00 0.00 70 1018.3
20260901140021 86 30 0.0 0.0 0.00 0.00 0.00 74 1018.4
20260901134518 84 30 0.0 0.0 0.00 0.00 0.00 78 1018.3
20260901133021 82 30 0.0 0.0 0.00 0.00 0.00 82 1018.4
20260901131510 79 30 0.0 0.0 0.00 0.00 0.00 88 1018.4
20260901130005 76 30 0.0 0.0 0.00 0.00 0.00 92 1018.4
20260901124506 74 30 0.0 0.0 0.00 0.00 0.00 93 1018.3
20260901123008 74 30 0.0 0.0 0.00 0.00 0.00 94 1018.0
20260901121502 73 30 0.0 0.0 0.00 0.00 0.00 94 1017.9
20260901120001 73 30 0.0 0.0 0.00 0.00 0.00 94 1017.8
20260901114602 72 30 0.0 0.0 0.00 0.00 0.00 93 1017.6
20260901113057 73 30 0.0 0.0 0.00 0.00 0.00 93 1017.3
20260901111601 73 30 0.0 0.0 0.00 0.00 0.00 93 1017.2
20260901110054 73 30 0.0 0.0 0.00 0.00 0.00 93 1017.2
20260901104553 73 30 0.0 0.0 0.00 0.00 0.00 93 1017.2
20260901103106 73 30 0.0 0.0 0.00 0.00 0.00 92 1017.0
20260901101553 74 30 0.0 0.0 0.00 0.00 0.00 92 1016.9
20260901100048 74 30 0.0 0.0 0.00 0.00 0.00 92 1016.8
20260901094547 74 30 0.0 0.0 0.00 0.00 0.00 92 1016.6
20260901093114 74 30 0.0 0.0 0.00 0.00 0.00 92 1016.6
20260901091559 74 30 0.0 0.0 0.00 0.00 0.00 92 1016.6
20260901090043 74 30 0.0 0.0 0.00 0.00 0.00 91 1016.6
20260901084542 74 30 0.0 0.0 0.00 0.00 0.00 91 1016.6
20260901083046 74 30 0.0 0.0 0.00 0.00 0.00 91 1016.4
20260901081542 75 30 0.0 0.0 0.00 0.00 0.00 91 1016.4
20260901080045 75 30 0.0 0.0 0.00 0.00 0.00 91 1016.4
20260901074538 75 30 0.0 0.0 0.00 0.00 0.00 90 1016.4
20260901073038 75 30 0.0 0.0 0.00 0.00 0.00 90 1016.3
20260901071536 76 30 0.0 0.0 0.00 0.00 0.00 90 1016.3
20260901070037 76 30 0.0 0.0 0.00 0.00 0.00 90 1016.2
20260901064538 76 30 0.0 0.0 0.00 0.00 0.00 89 1016.2
20260901063036 76 30 0.0 0.0 0.00 0.00 0.00 88 1016.2
20260901061532 76 30 0.0 0.0 0.00 0.00 0.00 88 1016.4
20260901060030 77 30 0.0 0.0 0.00 0.00 0.00 87 1016.4
20260901054529 77 30 0.0 0.0 0.00 0.00 0.00 87 1016.4
20260901053028 77 30 0.0 0.0 0.00 0.00 0.00 86 1016.3
20260901051526 77 30 0.0 0.0 0.00 0.00 0.00 86 1016.3
20260901050024 77 30 0.0 0.0 0.00 0.00 0.00 85 1016.3
20260901044523 78 30 0.0 0.0 0.00 0.00 0.00 85 1016.3
20260901043023 78 30 0.0 0.0 0.00 0.00 0.00 84 1016.2
20260901041524 78 31 0.0 0.0 0.00 0.00 0.00 83 1016.0
20260901040025 79 31 0.0 0.0 0.00 0.00 0.00 83 1016.0
20260901034523 79 31 0.0 0.0 0.00 0.00 0.00 82 1016.0
20260901033036 80 31 0.0 0.0 0.00 0.00 0.00 82 1015.9
20260901031520 80 31 0.0 0.0 0.00 0.00 0.00 81 1016.0